Waarnemingen

Advertentie
Mijn weer
Barth, Duitsland (10180): temperatuur & dauwpunt: 11.08.2018 19:00:00 - 17.08.2018 19:00:00 (CEST)Barth, Duitsland (10180): temperatuur 5cm & temperatuur -5cm: 11.08.2018 19:00:00 - 17.08.2018 19:00:00 (CEST)Barth, Duitsland (10180): temperatuur -20cm & temperatuur -100cm: 11.08.2018 19:00:00 - 17.08.2018 19:00:00 (CEST)Barth, Duitsland (10180): windsnelheid & windstoten: 11.08.2018 19:00:00 - 17.08.2018 19:00:00 (CEST)Barth, Duitsland (10180): windrichting: 11.08.2018 19:00:00 - 17.08.2018 19:00:00 (CEST)Barth, Duitsland (10180): luchtdruk: 11.08.2018 19:00:00 - 17.08.2018 19:00:00 (CEST)Barth, Duitsland (10180): zicht: 11.08.2018 19:00:00 - 17.08.2018 19:00:00 (CEST)Barth, Duitsland (10180): Zonneschijnduur: 11.08.2018 19:00:00 - 17.08.2018 19:00:00 (CEST)Barth, Duitsland (10180): neerslag: 11.08.2018 19:00:00 - 17.08.2018 19:00:00 (CEST)
Datum & Tijd tt [°C] td [°C] tt 5cm [°C] tt -5cm [°C] tt -20cm [°C] tt -100cm [°C] ff [km/u] ff [kn] fx [km/u] fx [kn] dd ppp [hPa] vv [km] sd [min] rr [mm]
17.08.2018 19:00:00 19,0 16,4 18,9 22,9 22,4 17,6 6 3 30 16 WNW 1017,2 16 0 0,6
17.08.2018 18:00:00 20,8 14,1 20,7 24,5 22,5 17,6 16 9 26 14 NW 1016,7 10 0 0,0
17.08.2018 17:00:00 21,3 16,0 22,1 26,1 22,3 17,6 15 8 29 16 N 1016,6 50 29 0,0
17.08.2018 16:00:00 22,3 15,9 23,7 26,7 21,9 17,6 16 8 27 15 NW 1016,3 49 45 0,0
17.08.2018 15:00:00 23,3 15,2 27,5 26,7 21,5 17,6 17 9 27 14 WNW 1016,2 36 28 0,0
17.08.2018 14:00:00 23,4 14,7 27,1 26,9 20,9 17,6 15 8 26 14 NNW 1016,2 29 54 0,0
17.08.2018 13:00:00 23,4 14,7 26,3 25,8 20,3 17,6 13 7 22 12 NNW 1015,9 44 50 0,0
17.08.2018 12:00:00 22,7 15,2 26,7 24,0 19,8 17,6 11 6 24 13 N 1015,9 40 39 0,0
17.08.2018 11:00:00 22,7 15,3 25,6 23,0 19,3 17,6 13 7 21 11 N 1015,6 27 60 0,0
17.08.2018 10:00:00 22,2 15,2 24,0 21,2 18,9 17,6 12 7 20 11 N 1015,4 24 60 0,0
17.08.2018 09:00:00 21,0 15,8 21,6 19,2 18,8 17,6 13 7 21 11 NNW 1015,1 16 52 0,0
17.08.2018 08:00:00 19,9 16,5 18,8 17,6 18,8 17,6 3 2 8 5 NW 1015,1 11 60 0,0
17.08.2018 07:00:00 14,2 12,5 13,3 16,3 19,1 17,6 2 1 8 4 NW 1014,8 12 18 0,0
17.08.2018 06:00:00 12,1 10,8 10,7 16,4 19,4 17,6 2 1 5 3 Z 1014,3 9 0 0,0
17.08.2018 05:00:00 13,0 12,0 10,9 16,9 19,8 17,6 5 3 9 5 WZW 1014,1 10 0 0,0
17.08.2018 04:00:00 13,6 12,2 11,4 17,4 20,1 17,6 6 3 9 5 W 1014,3 11 0 0,0
17.08.2018 03:00:00 17,2 13,0 12,3 18,0 20,5 17,6 4 2 7 4 ZO 1014,0 26 0 0,0
17.08.2018 02:00:00 18,8 13,1 14,7 18,6 20,8 17,6 7 4 14 7 ZZO 1014,1 31 0 0,0
17.08.2018 01:00:00 18,1 13,3 13,7 19,1 21,2 17,6 6 3 10 5 ZZO 1014,2 29 0 0,0
17.08.2018 00:00:00 17,5 13,5 13,9 19,8 21,6 17,6 4 2 9 5 ZZW 1014,3 24 0 0,0
16.08.2018 23:00:00 18,5 13,9 14,7 20,6 21,9 17,6 4 2 10 5 ZZO 1014,1 24 0 0,0
16.08.2018 22:00:00 22,4 13,2 17,2 21,6 22,3 17,6 7 4 12 6 ZO 1014,2 53 0 0,0
16.08.2018 21:00:00 23,5 13,4 18,4 22,7 22,6 17,6 6 4 14 8 ZZO 1014,3 39 0 0,0
16.08.2018 20:00:00 24,7 13,6 22,2 24,2 22,7 17,6 8 5 22 12 Z 1014,2 35 52 0,0
16.08.2018 19:00:00 26,0 13,7 26,3 25,5 22,7 17,6 13 7 32 17 Z 1014,3 37 60 0,0
16.08.2018 18:00:00 26,4 12,9 27,3 26,6 22,5 17,6 19 10 31 17 Z 1014,6 33 60 0,0
16.08.2018 17:00:00 26,4 13,3 27,8 27,2 22,2 17,6 22 12 37 20 Z 1014,9 25 60 0,0
16.08.2018 16:00:00 26,2 13,0 28,3 27,4 21,8 17,6 22 12 43 23 Z 1015,2 21 60 0,0
16.08.2018 15:00:00 25,7 13,2 29,0 27,0 21,3 17,6 19 10 40 21 Z 1015,8 26 57 0,0
16.08.2018 14:00:00 25,3 14,4 28,5 26,8 20,7 17,6 19 10 36 20 Z 1016,4 38 58 0,0
16.08.2018 13:00:00 24,6 13,9 28,6 25,8 20,1 17,6 19 10 30 16 Z 1016,8 32 54 0,0
16.08.2018 12:00:00 24,1 14,3 27,2 24,4 19,6 17,6 20 11 34 19 Z 1017,2 23 59 0,0
16.08.2018 11:00:00 23,4 14,9 25,7 22,7 19,2 17,6 18 10 29 16 ZZW 1017,6 18 60 0,0
16.08.2018 10:00:00 22,0 15,1 24,0 21,0 18,9 17,6 17 9 25 14 ZZW 1017,7 25 60 0,0
16.08.2018 09:00:00 20,5 14,5 21,8 19,6 18,8 17,6 13 7 20 11 Z 1017,8 24 60 0,0
16.08.2018 08:00:00 18,9 14,5 19,7 18,4 18,9 17,6 8 5 15 8 Z 1017,9 19 57 0,0
16.08.2018 07:00:00 17,9 14,7 17,1 17,9 19,0 17,6 10 5 13 7 Z 1017,9 18 0 0,0
16.08.2018 06:00:00 18,0 15,0 16,8 18,2 19,1 17,6 9 5 11 6 ZZO 1017,9 18 0 0,0
16.08.2018 05:00:00 18,2 15,6 17,2 18,3 19,2 17,6 6 3 10 5 ZZO 1018,3 13 0 0,0
16.08.2018 04:00:00 18,2 15,6 16,8 18,5 19,4 17,6 8 4 10 5 ZZO 1018,2 11 0 0,0
16.08.2018 03:00:00 18,1 15,9 17,2 18,6 19,5 17,6 5 3 8 5 Z 1018,2 10 0 0,0
16.08.2018 02:00:00 18,0 15,8 17,0 18,6 19,7 17,6 5 3 8 5 Z 1018,2 12 0 0,0
16.08.2018 01:00:00 17,9 16,1 15,7 19,0 19,8 17,6 5 3 11 6 ZZW 1018,3 10 0 0,0
16.08.2018 00:00:00 18,7 16,5 17,7 19,4 20,0 17,6 5 3 13 7 ZZW 1018,2 13 0 0,1
15.08.2018 23:00:00 19,3 16,0 18,0 19,6 20,2 17,6 8 5 16 8 WZW 1018,3 19 0 0,1
15.08.2018 22:00:00 18,5 15,9 16,9 19,9 20,4 17,7 5 3 10 5 ZZO 1018,2 22 0 0,0
15.08.2018 21:00:00 18,6 15,1 17,0 20,4 20,6 17,7 5 3 16 9 ZW 1018,0 31 0 0,0
15.08.2018 20:00:00 21,0 14,7 20,1 21,5 20,7 17,7 12 6 21 11 W 1017,6 58 0 0,0
15.08.2018 19:00:00 21,5 14,5 21,2 22,3 20,7 17,7 13 7 31 17 WZW 1017,4 60 32 0,0
15.08.2018 18:00:00 22,3 14,0 23,1 23,1 20,5 17,7 20 11 29 15 W 1017,5 38 45 0,0
15.08.2018 17:00:00 21,7 14,4 23,0 23,3 20,3 17,7 19 11 29 15 W 1017,5 70 7 0,0
15.08.2018 16:00:00 21,3 14,5 22,9 23,3 20,0 17,7 17 9 29 16 W 1017,5 69 8 0,0
15.08.2018 15:00:00 22,3 13,8 25,2 23,6 19,6 17,7 20 11 34 18 W 1017,2 21 58 0,0
15.08.2018 14:00:00 21,1 15,4 23,2 21,8 19,4 17,7 23 13 35 19 W 1017,2 37 13 0,0
15.08.2018 13:00:00 19,4 15,6 19,3 21,1 19,2 17,7 18 10 32 18 W 1016,9 52 0 0,5
15.08.2018 12:00:00 18,3 15,0 17,2 21,6 18,9 17,7 15 8 26 14 W 1016,9 14 18 0,1
15.08.2018 11:00:00 20,2 12,8 21,9 21,0 18,6 17,7 18 10 31 17 W 1016,5 39 59 0,0
15.08.2018 10:00:00 19,5 12,8 21,6 19,8 18,4 17,7 17 9 34 18 WNW 1016,1 56 56 0,0
15.08.2018 09:00:00 18,5 13,6 20,2 18,9 18,3 17,7 18 10 31 17 WNW 1015,3 37 48 0,0
15.08.2018 08:00:00 17,3 13,9 16,9 17,6 18,4 17,7 13 7 24 13 W 1014,9 36 0 0,0
15.08.2018 07:00:00 17,0 15,0 16,3 17,3 18,5 17,7 12 7 22 12 W 1014,2 27 0 0,0
15.08.2018 06:00:00 17,2 15,5 16,4 17,3 18,6 17,7 14 7 31 17 WNW 1013,4 23 0 0,0
15.08.2018 05:00:00 18,0 16,5 17,4 17,7 18,6 17,7 17 9 26 14 W 1012,7 16 0 0,2
15.08.2018 04:00:00 17,9 16,3 17,3 17,7 18,7 17,7 14 8 25 13 W 1012,6 19 0 2,7
15.08.2018 03:00:00 18,8 15,6 18,2 17,8 18,8 17,8 13 7 24 13 W 1012,4 24 0 0,0
15.08.2018 02:00:00 19,0 15,5 18,2 17,8 19,0 17,8 12 7 22 12 WNW 1012,3 27 0 0,0
15.08.2018 01:00:00 18,5 15,7 17,7 18,0 19,1 17,8 13 7 19 10 W 1012,0 27 0 0,0
15.08.2018 00:00:00 18,7 15,7 18,1 18,2 19,3 17,8 11 6 24 13 W 1011,6 32 0 0,0
14.08.2018 23:00:00 18,9 15,3 18,3 18,4 19,4 17,8 15 8 27 15 WNW 1011,0 33 0 0,0
14.08.2018 22:00:00 18,9 16,1 18,2 18,5 19,6 17,8 14 8 28 15 W 1010,5 32 0 0,0
14.08.2018 21:00:00 18,9 16,6 18,4 19,0 19,8 17,8 14 7 28 15 WZW 1010,0 17 0 0,0
14.08.2018 20:00:00 19,6 16,4 19,2 19,7 19,9 17,8 18 10 26 14 WZW 1009,4 26 5 0,0
14.08.2018 19:00:00 19,6 16,0 19,5 20,2 20,1 17,8 16 9 37 20 WZW 1009,0 31 0 0,0
14.08.2018 18:00:00 19,9 16,4 18,9 20,9 20,1 17,8 26 14 38 21 W 1008,7 26 10 0,0
14.08.2018 17:00:00 20,5 15,0 20,6 21,4 20,0 17,8 21 11 41 22 W 1008,4 42 13 0,0
14.08.2018 16:00:00 21,8 14,5 22,4 23,1 19,6 17,8 27 14 37 20 W 1008,1 32 54 0,0
14.08.2018 15:00:00 22,1 14,7 23,5 22,7 19,2 17,8 26 14 40 22 WZW 1007,9 21 29 0,0
14.08.2018 14:00:00 21,4 15,6 22,9 21,6 18,9 17,8 20 11 33 18 WZW 1007,7 11 5 0,0
14.08.2018 13:00:00 19,7 15,9 20,4 21,4 18,7 17,8 21 11 34 18 WZW 1007,4 8 15 0,0
14.08.2018 12:00:00 17,6 16,0 18,2 19,2 18,5 17,8 21 12 35 19 WZW 1007,4 7 1 1,7
14.08.2018 11:00:00 19,7 15,1 20,5 19,3 18,3 17,8 20 11 32 17 ZW 1007,0 15 0 0,0
14.08.2018 10:00:00 18,7 14,6 19,5 19,5 18,1 17,9 21 11 31 17 ZZW 1006,7 10 12 0,0
14.08.2018 09:00:00 18,1 14,6 18,8 18,0 17,9 17,9 19 10 29 15 ZW 1006,6 9 0 0,0
14.08.2018 08:00:00 17,3 14,7 17,3 16,9 18,0 17,9 15 8 26 14 ZZW 1006,4 8 0 0,0
14.08.2018 07:00:00 16,8 14,6 16,5 16,3 18,1 17,9 17 9 24 13 ZZW 1006,2 9 0 0,0
14.08.2018 06:00:00 15,8 14,0 14,3 15,9 18,3 17,9 10 5 19 11 ZW 1005,8 15 0 0,0
14.08.2018 05:00:00 16,7 14,3 15,2 16,4 18,5 17,9 12 7 19 10 ZW 1005,7 26 0 0,0
14.08.2018 04:00:00 16,8 14,4 15,2 16,3 18,7 17,9 9 5 16 9 ZZW 1005,5 38 0 0,0
14.08.2018 03:00:00 16,7 14,1 13,7 16,6 19,0 17,9 7 4 13 7 Z 1005,4 45 0 0,0
14.08.2018 02:00:00 17,4 14,1 15,2 17,1 19,2 17,9 9 5 19 10 Z 1005,4 35 0 0,0
14.08.2018 01:00:00 15,6 14,8 13,7 17,2 19,5 17,9 3 2 5 3 Z 1005,7 12 0 0,0
14.08.2018 00:00:00 15,5 14,5 12,7 17,6 19,8 17,9 3 2 8 4 Z 1005,9 13 0 0,0
13.08.2018 23:00:00 17,7 15,4 14,9 18,7 20,1 18,0 3 1 9 5 WZW 1005,8 29 0 0,0
13.08.2018 22:00:00 20,0 16,1 18,4 19,4 20,3 18,0 3 2 16 9 N 1006,0 37 0 0,0
13.08.2018 21:00:00 20,6 14,9 18,8 19,8 20,5 18,0 8 4 17 9 NNO 1006,2 42 0 0,0
13.08.2018 20:00:00 21,6 15,4 20,3 20,4 20,7 18,0 3 2 19 11 ZZW 1006,4 45 0 0,0
13.08.2018 19:00:00 22,1 15,1 21,0 20,6 21,0 18,0 18 10 35 19 OZO 1006,2 39 0 0,0
13.08.2018 18:00:00 23,0 13,2 22,1 21,7 21,1 18,0 21 12 32 17 O 1006,0 55 0 0,0
13.08.2018 17:00:00 24,5 11,7 23,7 23,5 21,0 18,0 23 13 31 17 O 1006,2 41 29 0,0
13.08.2018 16:00:00 25,8 11,6 27,7 25,7 20,6 18,0 22 12 31 17 O 1006,4 19 56 0,0
13.08.2018 15:00:00 24,9 12,7 25,4 25,4 20,1 18,0 18 10 28 15 O 1007,0 39 50 0,0
13.08.2018 14:00:00 25,1 12,8 28,3 25,1 19,5 18,1 17 9 23 12 O 1007,7 35 24 0,0
13.08.2018 13:00:00 24,3 12,5 27,0 24,9 18,8 18,1 16 9 24 13 O 1007,8 20 48 0,0
13.08.2018 12:00:00 22,5 13,2 23,9 22,4 18,4 18,1 12 6 22 12 OZO 1008,5 30 9 0,0
13.08.2018 11:00:00 21,0 13,1 21,9 20,3 18,1 18,1 14 8 20 11 OZO 1008,7 12 0 0,0
13.08.2018 10:00:00 20,4 12,8 20,9 19,5 17,8 18,1 15 8 23 13 ZO 1008,8 16 3 0,0
13.08.2018 09:00:00 19,2 14,1 19,4 18,0 17,7 18,1 13 7 22 12 ZO 1009,1 50 0 0,0
13.08.2018 08:00:00 18,2 14,6 17,9 17,1 17,7 18,1 14 8 21 11 ZO 1009,0 39 0 0,0
13.08.2018 07:00:00 17,3 14,6 16,8 16,5 17,8 18,2 12 6 23 12 ZO 1009,1 31 0 0,0
13.08.2018 06:00:00 16,9 14,2 15,8 16,4 17,9 18,2 14 8 20 11 OZO 1009,5 25 0 0,1
13.08.2018 05:00:00 16,4 13,9 15,4 16,4 18,0 18,2 8 4 18 10 OZO 1010,1 23 0 0,0
13.08.2018 04:00:00 16,8 13,8 16,0 16,7 18,1 18,2 8 4 14 7 ZO 1010,5 22 0 0,0
13.08.2018 03:00:00 16,5 13,9 15,8 16,7 18,3 18,2 5 3 16 9 O 1010,9 17 0 0,0
13.08.2018 02:00:00 16,4 13,2 15,7 16,8 18,4 18,2 12 7 20 11 OZO 1010,9 17 0 0,0
13.08.2018 01:00:00 15,7 14,0 15,2 17,1 18,6 18,3 3 2 10 5 NNO 1011,9 9 0 0,0
13.08.2018 00:00:00 16,3 13,3 15,6 17,1 18,8 18,3 7 4 19 10 OZO 1011,9 10 0 0,0
12.08.2018 23:00:00 16,4 13,2 15,9 17,6 19,0 18,3 11 6 16 9 O 1012,2 16 0 0,0
12.08.2018 22:00:00 16,6 13,2 16,1 18,0 19,2 18,3 8 4 10 6 NO 1012,5 14 0 0,0
12.08.2018 21:00:00 17,0 12,9 16,4 18,4 19,3 18,3 8 4 13 7 ONO 1012,7 17 0 0,0
12.08.2018 20:00:00 17,8 13,2 17,3 19,2 19,5 18,4 2 1 9 5 NO 1013,2 19 0 0,0
12.08.2018 19:00:00 18,3 12,0 17,9 19,5 19,6 18,4 3 2 10 6 W 1013,7 29 0 0,0
12.08.2018 18:00:00 18,8 11,0 18,9 20,1 19,7 18,4 9 5 20 11 WNW 1014,0 29 0 0,0
12.08.2018 17:00:00 19,0 11,2 19,1 21,0 19,6 18,4 13 7 24 13 WNW 1014,6 28 0 0,0
12.08.2018 16:00:00 20,2 10,8 21,9 21,9 19,4 18,4 18 10 29 16 W 1015,0 38 14 0,0
12.08.2018 15:00:00 19,8 9,4 20,8 22,5 19,0 18,4 20 11 31 17 W 1015,4 40 42 0,0
12.08.2018 14:00:00 20,3 10,7 23,3 23,5 18,4 18,4 18 10 29 16 W 1015,9 39 54 0,0
12.08.2018 13:00:00 20,2 10,0 22,6 22,5 17,7 18,5 21 11 36 19 W 1016,2 26 56 0,0
12.08.2018 12:00:00 19,2 8,9 21,3 21,4 17,1 18,5 23 13 37 20 WZW 1016,8 13 60 0,0
12.08.2018 11:00:00 18,2 10,0 20,0 19,8 16,6 18,5 24 13 37 20 ZW 1016,8 14 59 0,0
12.08.2018 10:00:00 17,6 12,6 19,4 18,1 16,2 18,5 25 14 40 22 ZW 1017,1 23 55 0,0
12.08.2018 09:00:00 15,8 12,2 16,9 16,2 15,9 18,5 18 10 31 17 ZW 1017,2 35 50 0,0
12.08.2018 08:00:00 14,4 12,1 14,2 14,4 15,9 18,5 16 9 27 15 ZW 1017,3 28 7 0,0
12.08.2018 07:00:00 13,6 11,6 12,9 13,4 16,0 18,6 18 10 26 14 ZW 1017,2 31 0 0,0
12.08.2018 06:00:00 12,7 10,9 11,6 12,8 16,1 18,6 12 7 27 15 ZW 1017,0 35 0 0,0
12.08.2018 05:00:00 13,1 11,0 11,9 13,0 16,2 18,6 18 10 25 13 ZZW 1017,0 34 0 0,0
12.08.2018 04:00:00 13,5 10,5 11,8 13,5 16,3 18,6 14 8 33 18 ZW 1017,1 70 0 0,0
12.08.2018 03:00:00 14,0 11,4 12,6 14,0 16,4 18,6 10 5 30 16 WZW 1017,2 70 0 5,7
12.08.2018 02:00:00 13,8 11,6 12,9 14,1 16,8 18,6 18 10 38 20 W 1017,4 1,8 0 2,5
12.08.2018 01:00:00 14,6 10,0 12,7 14,3 16,9 18,6 23 12 38 20 WNW 1017,6 7 0 0,2
12.08.2018 00:00:00 15,2 11,6 14,0 14,2 16,9 18,6 21 12 34 19 W 1017,2 68 0 0,0
11.08.2018 23:00:00 13,7 11,1 12,4 14,3 17,4 18,6 6 3 48 26 W 1017,4 70 0 6,0
11.08.2018 22:00:00 15,7 9,7 14,4 14,7 18,2 18,7 22 12 34 19 W 1017,1 70 0 0,0
11.08.2018 21:00:00 15,4 10,3 13,6 15,5 18,5 18,7 24 13 50 27 W 1016,7 70 15 2,2
11.08.2018 20:00:00 14,3 10,9 12,9 15,9 18,7 18,7 38 21 54 29 W 1016,1 6 7 1,2
11.08.2018 19:00:00 16,8 11,9 17,6 17,2 18,9 18,7 37 20 58 31 WZW 1015,5 48 20 0,0

tt = temperatuur
td = dauwpunt
tt 5cm = temperatuur 5cm
tt -5cm = temperatuur -5cm
tt -20cm = temperatuur -20cm
tt -100cm = temperatuur -100cm
ff = windsnelheid
fx = windstoten
dd = windrichting
ppp = luchtdruk
vv = zicht
sd = Zonneschijnduur
rr = neerslag

Weerstations in de omgeving